KLM755 SEQM-SEGU

Flight info

Callsign KLM755
Flight time 0h 37m
Altitude 30000
Route TEMOX3B TEMOX DCT MUBAS DCT UMDER DCT ARSOR DCT IRODA
Aircraft L101/H-SDFHIR/S

Departure

Time 2026-04-20 13:50
Airport Mariscal Sucre International Airport (SEQM)

Arrival

Time 2026-04-20 14:27
Airport José Joaquín de Olmedo International Airport (SEGU)
Time Latitude Longitude Altitude Speed Heading
2026-04-20 13:19 -0.12541 -78.35917 7847 ft 0 kts 266°
2026-04-20 13:34 -0.12541 -78.35903 7847 ft 2 kts 269°
2026-04-20 13:34 -0.12541 -78.35883 7840 ft 3 kts 269°
2026-04-20 13:34 -0.12540 -78.35866 7840 ft 3 kts 259°
2026-04-20 13:35 -0.12534 -78.35849 7847 ft 3 kts 225°
2026-04-20 13:35 -0.12519 -78.35839 7838 ft 3 kts 192°
2026-04-20 13:35 -0.12499 -78.35837 7847 ft 3 kts 179°
2026-04-20 13:35 -0.12488 -78.35837 7847 ft 1 kts 178°
2026-04-20 13:36 -0.12487 -78.35837 7847 ft 0 kts 178°
2026-04-20 13:39 -0.12494 -78.35837 7847 ft 2 kts 178°
2026-04-20 13:39 -0.12516 -78.35836 7847 ft 4 kts 177°
2026-04-20 13:39 -0.12555 -78.35834 7848 ft 7 kts 178°
2026-04-20 13:39 -0.12608 -78.35833 7841 ft 9 kts 176°
2026-04-20 13:40 -0.12670 -78.35817 7843 ft 9 kts 141°
2026-04-20 13:40 -0.12692 -78.35763 7850 ft 8 kts 95°
2026-04-20 13:40 -0.12695 -78.35712 7853 ft 5 kts 110°
2026-04-20 13:40 -0.12700 -78.35706 7854 ft 0 kts 125°
2026-04-20 13:41 -0.12705 -78.35699 7856 ft 0 kts 129°
2026-04-20 13:42 -0.12713 -78.35692 7858 ft 2 kts 141°
2026-04-20 13:42 -0.12770 -78.35679 7865 ft 4 kts 173°
2026-04-20 13:42 -0.12792 -78.35676 7867 ft 3 kts 173°
2026-04-20 13:43 -0.12809 -78.35674 7868 ft 2 kts 172°
2026-04-20 13:43 -0.12828 -78.35671 7869 ft 3 kts 172°
2026-04-20 13:43 -0.12857 -78.35668 7871 ft 5 kts 175°
2026-04-20 13:43 -0.12897 -78.35665 7873 ft 7 kts 178°
2026-04-20 13:44 -0.12950 -78.35664 7875 ft 9 kts 178°
2026-04-20 13:44 -0.13018 -78.35661 7877 ft 11 kts 177°
2026-04-20 13:44 -0.13096 -78.35657 7880 ft 12 kts 176°
2026-04-20 13:44 -0.13182 -78.35652 7884 ft 13 kts 176°
2026-04-20 13:45 -0.13275 -78.35645 7887 ft 14 kts 179°
2026-04-20 13:45 -0.13376 -78.35643 7890 ft 15 kts 180°
2026-04-20 13:45 -0.13483 -78.35645 7893 ft 16 kts 180°
2026-04-20 13:45 -0.13572 -78.35595 7902 ft 15 kts 126°
2026-04-20 13:46 -0.13653 -78.35563 7899 ft 12 kts 178°
2026-04-20 13:46 -0.13736 -78.35561 7905 ft 12 kts 178°
2026-04-20 13:46 -0.13819 -78.35557 7906 ft 12 kts 177°
2026-04-20 13:46 -0.13909 -78.35552 7909 ft 13 kts 177°
2026-04-20 13:47 -0.13996 -78.35548 7913 ft 12 kts 178°
2026-04-20 13:47 -0.14070 -78.35545 7919 ft 9 kts 177°
2026-04-20 13:47 -0.14125 -78.35542 7923 ft 7 kts 177°
2026-04-20 13:47 -0.14172 -78.35540 7924 ft 10 kts 177°
2026-04-20 13:48 -0.14232 -78.35513 7926 ft 9 kts 133°
2026-04-20 13:48 -0.14251 -78.35455 7920 ft 10 kts 92°
2026-04-20 13:48 -0.14236 -78.35381 7924 ft 10 kts 50°
2026-04-20 13:48 -0.14175 -78.35370 7914 ft 0 kts 360°
2026-04-20 13:49 -0.14158 -78.35370 7923 ft 18 kts 359°
2026-04-20 13:49 -0.13726 -78.35389 7899 ft 105 kts 358°
2026-04-20 13:49 -0.12738 -78.35425 7871 ft 177 kts 359°
2026-04-20 13:49 -0.11398 -78.35473 8438 ft 197 kts 356°
2026-04-20 13:50 -0.10019 -78.35564 9518 ft 199 kts 355°
2026-04-20 13:50 -0.08699 -78.35654 10097 ft 191 kts 353°
2026-04-20 13:50 -0.07373 -78.35744 10692 ft 191 kts 351°
2026-04-20 13:50 -0.06173 -78.36268 11401 ft 196 kts 319°
2026-04-20 13:51 -0.05377 -78.37400 12230 ft 200 kts 294°
2026-04-20 13:51 -0.05010 -78.38701 13506 ft 189 kts 281°
2026-04-20 13:51 -0.04842 -78.40032 14325 ft 203 kts 276°
2026-04-20 13:51 -0.04744 -78.41515 14680 ft 227 kts 273°
2026-04-20 13:52 -0.04680 -78.43185 14956 ft 249 kts 272°
2026-04-20 13:52 -0.04636 -78.45016 14933 ft 278 kts 271°
2026-04-20 13:52 -0.04603 -78.47022 15106 ft 299 kts 271°
2026-04-20 13:52 -0.04572 -78.49145 15248 ft 320 kts 271°
2026-04-20 13:53 -0.04541 -78.51442 15363 ft 340 kts 271°
2026-04-20 13:53 -0.04508 -78.53863 15476 ft 357 kts 271°
2026-04-20 13:53 -0.04639 -78.56376 15571 ft 371 kts 260°
2026-04-20 13:53 -0.05551 -78.58836 15656 ft 386 kts 239°
2026-04-20 13:54 -0.07231 -78.60975 15846 ft 396 kts 229°
2026-04-20 13:54 -0.09108 -78.63019 16003 ft 404 kts 229°
2026-04-20 13:54 -0.10948 -78.65152 16405 ft 405 kts 231°
2026-04-20 13:54 -0.12777 -78.67320 16785 ft 408 kts 230°
2026-04-20 13:55 -0.14669 -78.69437 17115 ft 411 kts 228°
2026-04-20 13:55 -0.16659 -78.71497 17554 ft 413 kts 226°
2026-04-20 13:55 -0.18716 -78.73537 17871 ft 415 kts 226°
2026-04-20 13:55 -0.20786 -78.75564 18213 ft 419 kts 226°
2026-04-20 13:56 -0.22835 -78.77587 18761 ft 419 kts 226°
2026-04-20 13:56 -0.24923 -78.79649 19146 ft 422 kts 226°
2026-04-20 13:56 -0.27014 -78.81722 19579 ft 424 kts 226°
2026-04-20 13:56 -0.29117 -78.83813 19921 ft 428 kts 226°
2026-04-20 13:57 -0.31242 -78.85908 20318 ft 430 kts 225°
2026-04-20 13:57 -0.33388 -78.88001 20674 ft 433 kts 225°
2026-04-20 13:57 -0.35550 -78.90102 21067 ft 435 kts 225°
2026-04-20 13:57 -0.37719 -78.92218 21402 ft 438 kts 225°
2026-04-20 13:58 -0.39904 -78.94358 21787 ft 440 kts 225°
2026-04-20 13:58 -0.42094 -78.96506 22149 ft 442 kts 225°
2026-04-20 13:58 -0.44295 -78.98663 22497 ft 445 kts 225°
2026-04-20 13:58 -0.46486 -79.00807 22822 ft 447 kts 225°
2026-04-20 13:59 -0.48711 -79.02984 23134 ft 449 kts 225°
2026-04-20 13:59 -0.50949 -79.05177 23470 ft 452 kts 225°
2026-04-20 13:59 -0.53193 -79.07380 23817 ft 454 kts 225°
2026-04-20 13:59 -0.55457 -79.09599 24134 ft 456 kts 224°
2026-04-20 14:00 -0.57906 -79.11620 24379 ft 460 kts 212°
2026-04-20 14:00 -0.60759 -79.13093 24708 ft 463 kts 204°
2026-04-20 14:00 -0.63704 -79.14407 25027 ft 465 kts 206°
2026-04-20 14:00 -0.66597 -79.15866 25321 ft 467 kts 208°
2026-04-20 14:01 -0.69466 -79.17426 25611 ft 471 kts 208°
2026-04-20 14:01 -0.72347 -79.18942 25731 ft 458 kts 207°
2026-04-20 14:01 -0.75150 -79.20310 25899 ft 458 kts 205°
2026-04-20 14:01 -0.78107 -79.21693 26083 ft 479 kts 205°
2026-04-20 14:02 -0.81199 -79.23131 26209 ft 499 kts 205°
2026-04-20 14:02 -0.84358 -79.24609 26796 ft 502 kts 205°
2026-04-20 14:02 -0.87514 -79.26080 27891 ft 499 kts 205°
2026-04-20 14:02 -0.89590 -79.27044 28618 ft 496 kts 204°
2026-04-20 14:03 -0.92720 -79.28499 29678 ft 494 kts 204°
2026-04-20 14:03 -0.95866 -79.29968 30103 ft 507 kts 204°
2026-04-20 14:03 -0.99120 -79.31494 29986 ft 517 kts 204°
2026-04-20 14:03 -1.02369 -79.33028 29811 ft 517 kts 205°
2026-04-20 14:04 -1.05631 -79.34578 29633 ft 517 kts 205°
2026-04-20 14:04 -1.08820 -79.36105 29540 ft 494 kts 205°
2026-04-20 14:04 -1.11829 -79.37552 28996 ft 469 kts 205°
2026-04-20 14:04 -1.14681 -79.38927 28359 ft 452 kts 205°
2026-04-20 14:05 -1.17475 -79.40242 27726 ft 435 kts 204°
2026-04-20 14:05 -1.20194 -79.41440 27100 ft 420 kts 203°
2026-04-20 14:05 -1.22848 -79.42597 26488 ft 415 kts 204°
2026-04-20 14:05 -1.25501 -79.43787 25863 ft 418 kts 205°
2026-04-20 14:06 -1.28144 -79.45007 25223 ft 419 kts 205°
2026-04-20 14:06 -1.30777 -79.46235 24577 ft 415 kts 205°
2026-04-20 14:06 -1.33381 -79.47449 23980 ft 412 kts 205°
2026-04-20 14:06 -1.35967 -79.48645 23354 ft 406 kts 205°
2026-04-20 14:07 -1.38504 -79.49851 22721 ft 403 kts 207°
2026-04-20 14:07 -1.40933 -79.51239 22093 ft 400 kts 213°
2026-04-20 14:07 -1.43256 -79.52757 21462 ft 396 kts 214°
2026-04-20 14:07 -1.45513 -79.54252 20847 ft 391 kts 214°
2026-04-20 14:08 -1.47791 -79.55719 20224 ft 388 kts 213°
2026-04-20 14:08 -1.50073 -79.57162 19584 ft 385 kts 214°
2026-04-20 14:08 -1.52316 -79.58594 18955 ft 377 kts 213°
2026-04-20 14:08 -1.54510 -79.59999 18320 ft 373 kts 214°
2026-04-20 14:09 -1.56690 -79.61392 17694 ft 369 kts 214°
2026-04-20 14:09 -1.58822 -79.62748 17071 ft 357 kts 213°
2026-04-20 14:09 -1.60895 -79.64052 16426 ft 347 kts 213°
2026-04-20 14:09 -1.62912 -79.65321 15789 ft 338 kts 214°
2026-04-20 14:10 -1.64873 -79.66565 15161 ft 331 kts 213°
2026-04-20 14:10 -1.66795 -79.67784 14541 ft 323 kts 213°
2026-04-20 14:10 -1.68670 -79.68976 13916 ft 317 kts 214°
2026-04-20 14:10 -1.70514 -79.70160 13286 ft 312 kts 213°
2026-04-20 14:11 -1.72332 -79.71325 12657 ft 309 kts 213°
2026-04-20 14:11 -1.74135 -79.72478 12024 ft 306 kts 213°
2026-04-20 14:11 -1.75917 -79.73620 11405 ft 303 kts 213°
2026-04-20 14:11 -1.77688 -79.74759 10776 ft 301 kts 213°
2026-04-20 14:12 -1.79417 -79.75867 10282 ft 295 kts 212°
2026-04-20 14:12 -1.81161 -79.76967 9843 ft 289 kts 213°
2026-04-20 14:12 -1.82788 -79.78029 9404 ft 280 kts 213°
2026-04-20 14:12 -1.84419 -79.79105 8955 ft 280 kts 213°
2026-04-20 14:13 -1.86062 -79.80165 8521 ft 282 kts 212°
2026-04-20 14:13 -1.87700 -79.81207 8060 ft 276 kts 212°
2026-04-20 14:13 -1.89307 -79.82237 7601 ft 272 kts 212°
2026-04-20 14:13 -1.90884 -79.83247 7136 ft 267 kts 213°
2026-04-20 14:14 -1.92438 -79.84250 6696 ft 263 kts 212°
2026-04-20 14:14 -1.93974 -79.85235 6241 ft 261 kts 212°
2026-04-20 14:14 -1.95495 -79.86206 5831 ft 257 kts 212°
2026-04-20 14:14 -1.96969 -79.87147 5572 ft 253 kts 212°
2026-04-20 14:15 -1.98458 -79.88098 5388 ft 256 kts 212°
2026-04-20 14:15 -1.99968 -79.89060 5201 ft 258 kts 212°
2026-04-20 14:15 -2.01480 -79.90024 4989 ft 257 kts 212°
2026-04-20 14:15 -2.02985 -79.90984 4788 ft 257 kts 212°
2026-04-20 14:16 -2.04484 -79.91943 4590 ft 256 kts 212°
2026-04-20 14:16 -2.05976 -79.92905 4386 ft 254 kts 212°
2026-04-20 14:16 -2.07471 -79.93854 4190 ft 255 kts 211°
2026-04-20 14:16 -2.08975 -79.94805 3999 ft 258 kts 212°
2026-04-20 14:17 -2.10476 -79.95758 3797 ft 255 kts 212°
2026-04-20 14:17 -2.11960 -79.96713 3598 ft 254 kts 213°
2026-04-20 14:17 -2.13436 -79.97661 3384 ft 250 kts 212°
2026-04-20 14:17 -2.14920 -79.98589 3207 ft 250 kts 211°
2026-04-20 14:18 -2.16360 -79.99491 3058 ft 245 kts 212°
2026-04-20 14:18 -2.17802 -80.00419 3009 ft 247 kts 212°
2026-04-20 14:18 -2.19233 -80.01346 2983 ft 237 kts 212°
2026-04-20 14:18 -2.20573 -80.02207 2980 ft 220 kts 212°
2026-04-20 14:19 -2.21810 -80.02988 3006 ft 197 kts 212°
2026-04-20 14:19 -2.22961 -80.03700 3084 ft 196 kts 211°
2026-04-20 14:19 -2.24194 -80.04352 3269 ft 206 kts 200°
2026-04-20 14:19 -2.25628 -80.04521 3139 ft 210 kts 175°
2026-04-20 14:20 -2.27031 -80.04314 3013 ft 204 kts 170°
2026-04-20 14:20 -2.28454 -80.04186 2787 ft 207 kts 177°
2026-04-20 14:20 -2.29868 -80.04177 2587 ft 197 kts 179°
2026-04-20 14:20 -2.31175 -80.04141 2497 ft 180 kts 175°
2026-04-20 14:21 -2.32345 -80.04008 2494 ft 162 kts 171°
2026-04-20 14:21 -2.33489 -80.03806 2580 ft 172 kts 167°
2026-04-20 14:21 -2.34632 -80.03421 2560 ft 176 kts 147°
2026-04-20 14:21 -2.35369 -80.02476 2502 ft 173 kts 109°
2026-04-20 14:22 -2.35332 -80.01297 2527 ft 172 kts 73°
2026-04-20 14:22 -2.34729 -80.00271 2556 ft 176 kts 53°
2026-04-20 14:22 -2.33915 -79.99373 2550 ft 172 kts 45°
2026-04-20 14:22 -2.33017 -79.98583 2527 ft 173 kts 38°
2026-04-20 14:23 -2.32034 -79.97877 2505 ft 174 kts 34°
2026-04-20 14:23 -2.31033 -79.97198 2385 ft 172 kts 34°
2026-04-20 14:23 -2.30025 -79.96548 2296 ft 174 kts 32°
2026-04-20 14:23 -2.29000 -79.95908 2170 ft 173 kts 32°
2026-04-20 14:24 -2.27970 -79.95268 2082 ft 174 kts 32°
2026-04-20 14:24 -2.26946 -79.94658 2078 ft 166 kts 31°
2026-04-20 14:24 -2.25944 -79.94049 1993 ft 171 kts 32°
2026-04-20 14:24 -2.24889 -79.93424 1871 ft 180 kts 31°
2026-04-20 14:25 -2.23817 -79.92798 1724 ft 174 kts 31°
2026-04-20 14:25 -2.22806 -79.92216 1512 ft 166 kts 30°
2026-04-20 14:25 -2.21753 -79.91705 1288 ft 167 kts 22°
2026-04-20 14:25 -2.20749 -79.91229 1005 ft 158 kts 27°
2026-04-20 14:26 -2.19819 -79.90698 764 ft 150 kts 30°
2026-04-20 14:26 -2.18923 -79.90180 541 ft 149 kts 29°
2026-04-20 14:26 -2.18025 -79.89671 321 ft 148 kts 29°
2026-04-20 14:26 -2.17133 -79.89165 121 ft 147 kts 29°
2026-04-20 14:27 -2.16282 -79.88683 28 ft 132 kts 29°
2026-04-20 14:27 -2.15599 -79.88285 30 ft 95 kts 28°
2026-04-20 14:27 -2.15097 -79.87998 27 ft 68 kts 30°
2026-04-20 14:27 -2.14862 -79.87865 27 ft 25 kts 29°
2026-04-20 14:28 -2.14733 -79.87784 26 ft 8 kts 28°